This is the latest recevied weather packets stored in our database for station/object ALANSN-2. If no packets are shown the sender has not sent any weather packets the latest 10 day(s).
| Time | Temp. | Humidity | Pressure | Rain* | Wind** | Luminosity | Snow |
|---|---|---|---|---|---|---|---|
| 1787596320 | 20.56° C | 77% | 1026.2 hPa | 0 mm | - | 166 W/m² | - |
| 1787596020 | 20.56° C | 78% | 1026.3 hPa | 0 mm | - | 250 W/m² | - |
| 1787595720 | 20.56° C | 78% | 1026.3 hPa | 0 mm | - | 191 W/m² | - |
| 1787595418 | 20.56° C | 79% | 1026.2 hPa | 0 mm | - | 167 W/m² | - |
| 1787595119 | 20° C | 79% | 1026.2 hPa | 0 mm | - | 214 W/m² | - |
| 1787594820 | 20° C | 80% | 1026.2 hPa | 0 mm | - | 278 W/m² | - |
| 1787594520 | 20° C | 79% | 1026.3 hPa | 0 mm | - | 280 W/m² | - |
| 1787594220 | 20° C | 80% | 1026.1 hPa | 0 mm | - | 734 W/m² | - |
| 1787593919 | 19.44° C | 82% | 1026.2 hPa | 0 mm | - | 199 W/m² | - |
| 1787593620 | 19.44° C | 81% | 1026.3 hPa | 0 mm | - | 173 W/m² | - |
| 1787593319 | 18.89° C | 82% | 1026.3 hPa | 0 mm | - | 113 W/m² | - |
| 1787593020 | 18.89° C | 82% | 1026.4 hPa | 0 mm | - | 150 W/m² | - |
| 1787592719 | 18.89° C | 82% | 1026.4 hPa | 0 mm | - | 150 W/m² | - |
| 1787592420 | 18.89° C | 83% | 1026.3 hPa | 0 mm | - | 177 W/m² | - |
| 1787592120 | 18.33° C | 84% | 1026.3 hPa | 0 mm | - | 175 W/m² | - |
| 1787591820 | 18.33° C | 84% | 1026.3 hPa | 0 mm | - | 175 W/m² | - |
| 1787591520 | 18.89° C | 83% | 1026.5 hPa | 0 mm | - | 261 W/m² | - |
| 1787591220 | 18.33° C | 84% | 1026.4 hPa | 0 mm | - | 182 W/m² | - |
| 1787590919 | 18.33° C | 84% | 1026.4 hPa | 0 mm | - | 182 W/m² | - |
| 1787590625 | 18.33° C | 84% | 1026.6 hPa | 0 mm | - | 156 W/m² | - |
| 1787590320 | 18.33° C | 85% | 1026.5 hPa | 0 mm | - | 153 W/m² | - |
| 1787590019 | 18.33° C | 85% | 1026.5 hPa | 0 mm | - | 153 W/m² | - |
| 1787589719 | 18.33° C | 84% | 1026.2 hPa | 0 mm | - | 214 W/m² | - |
| 1787589420 | 17.78° C | 84% | 1026.4 hPa | 0 mm | - | 160 W/m² | - |
| 1787589120 | 17.78° C | 84% | 1026.4 hPa | 0 mm | - | 160 W/m² | - |
* Rain latest hour (hover to see other rain measurements)
** Current wind speed in m/s (hover to see current wind gust speed)